Location: Ch�risy
(50.2331°N, 2.9131°E)
Time: 20:15:16
(UTC+00:00)

OPS 8737 - Pass Details

Date: 17 January 2021
Orbit: 354 x 1719 km, 63.3° (Epoch: 10 February)

Event Time Altitude Azimuth Distance (km) Brightness Sun altitude
Rises 18:14:31 0° 316° (NW) 2,233 8.4 -18.2°
Reaches altitude 10° 18:16:20 10° 317° (NW) 1,438 7.4 -18.5°
Maximum altitude 18:19:25 89° 53° (NE) 456 4.3 -18.9°
Enters shadow 18:20:29 43° 137° (SE) 675 5.0 -19.1°
